Location: Unspecified
(40.7945°N, 0.0000°E)
Time: 10:44:56
(UTC+00:00)

TIGRISAT - Pass Details

Date: 31 August 2019
Orbit: 604 x 690 km, 97.7° (Epoch: 21 October)

Event Time Altitude Azimuth Distance (km) Brightness Sun altitude
Rises 19:55:24 0° 28° (NNE) 2,988 ? -15.3°
Reaches altitude 10° 19:58:11 10° 45° (NE) 2,054 ? -15.8°
Enters shadow 20:00:18 18° 72° (ENE) 1,567 ? -16.1°
